Time,TemperatureF,DewpointF,PressureIn,WindDirection,WindDirectionDegrees,WindSpeedMPH,WindSpeedGustMPH,Humidity,HourlyPrecipIn,Conditions,Clouds,dailyrainin,SoftwareType,DateUTC
2013-07-20 09:35:00,68.2,59.2,29.80,SE,143,0.0,0.0,73,0.00,,,0.00,Wunderground v.1.15,2013-07-20 16:35:00,
2013-07-20 09:40:00,68.2,59.2,29.80,SE,142,0.0,0.0,73,0.00,,,0.00,Wunderground v.1.15,2013-07-20 16:40:00,
2013-07-20 09:45:00,69.2,59.4,29.80,SE,143,0.0,0.0,71,0.00,,,0.00,Wunderground v.1.15,2013-07-20 16:45:00,
2013-07-20 09:50:00,69.0,59.6,29.80,SE,142,0.0,0.0,72,0.00,,,0.00,Wunderground v.1.15,2013-07-20 16:50:00,
2013-07-20 10:00:00,70.1,59.9,29.80,ESE,111,0.0,0.0,70,0.00,,,0.00,Wunderground v.1.15,2013-07-20 17:00:00,
2013-07-20 10:05:00,70.1,60.3,29.80,East,98,0.0,0.0,71,0.00,,,0.00,Wunderground v.1.15,2013-07-20 17:05:00,
2013-07-20 10:15:00,71.7,61.4,29.80,NE,42,0.0,0.0,70,0.00,,,0.00,Wunderground v.1.15,2013-07-20 17:15:00,
2013-07-20 10:20:00,71.9,60.8,29.80,ENE,67,0.0,0.0,68,0.00,,,0.00,Wunderground v.1.15,2013-07-20 17:20:00,
2013-07-20 10:25:00,72.4,61.2,29.80,ESE,110,0.0,0.0,68,0.00,,,0.00,Wunderground v.1.15,2013-07-20 17:25:00,
2013-07-20 10:30:00,72.5,62.6,29.80,ESE,110,0.0,0.0,71,0.00,,,0.00,Wunderground v.1.15,2013-07-20 17:30:00,
2013-07-20 10:40:00,74.0,62.3,29.79,South,175,0.0,0.0,67,0.00,,,0.00,Wunderground v.1.15,2013-07-20 17:40:00,
2013-07-20 10:45:00,74.3,61.3,29.79,SE,135,0.0,0.0,64,0.00,,,0.00,Wunderground v.1.15,2013-07-20 17:45:00,
2013-07-20 10:50:00,74.7,61.3,29.79,East,80,0.0,1.0,63,0.00,,,0.00,Wunderground v.1.15,2013-07-20 17:50:00,
2013-07-20 10:55:00,75.2,61.3,29.79,SE,130,0.0,1.0,62,0.00,,,0.00,Wunderground v.1.15,2013-07-20 17:55:00,
2013-07-20 11:00:00,75.6,62.6,29.79,NNW,347,0.0,1.0,64,0.00,,,0.00,Wunderground v.1.15,2013-07-20 18:00:00,
2013-07-20 11:05:00,76.4,62.9,29.79,NNW,348,0.0,1.0,63,0.00,,,0.00,Wunderground v.1.15,2013-07-20 18:05:00,
2013-07-20 11:15:00,77.7,63.6,29.78,SSE,157,0.0,0.0,62,0.00,,,0.00,Wunderground v.1.15,2013-07-20 18:15:00,
2013-07-20 11:25:00,79.4,64.3,29.78,South,173,0.0,0.0,60,0.00,,,0.00,Wunderground v.1.15,2013-07-20 18:25:00,
2013-07-20 11:35:00,80.0,62.4,29.77,SW,234,0.0,0.0,55,0.00,,,0.00,Wunderground v.1.15,2013-07-20 18:35:00,
2013-07-20 11:40:00,80.2,63.1,29.77,ESE,121,0.0,0.0,56,0.00,,,0.00,Wunderground v.1.15,2013-07-20 18:40:00,
2013-07-20 11:55:00,82.2,63.9,29.77,South,169,0.0,0.0,54,0.00,,,0.00,Wunderground v.1.15,2013-07-20 18:55:00,
2013-07-20 12:00:00,82.9,64.5,29.77,NW,325,0.0,0.0,54,0.00,,,0.00,Wunderground v.1.15,2013-07-20 19:00:00,
2013-07-20 12:05:00,83.2,66.9,29.77,ENE,78,0.0,0.0,58,0.00,,,0.00,Wunderground v.1.15,2013-07-20 19:05:00,
2013-07-20 12:15:00,84.2,65.2,29.76,SW,215,0.0,0.0,53,0.00,,,0.00,Wunderground v.1.15,2013-07-20 19:15:00,
2013-07-20 12:20:00,84.1,64.0,29.76,ESE,113,0.0,0.0,51,0.00,,,0.00,Wunderground v.1.15,2013-07-20 19:20:00,
2013-07-20 12:30:00,85.3,66.8,29.76,ESE,113,0.0,0.0,54,0.00,,,0.00,Wunderground v.1.15,2013-07-20 19:30:00,
2013-07-20 12:40:00,86.0,66.9,29.75,SSE,159,0.0,0.0,53,0.00,,,0.00,Wunderground v.1.15,2013-07-20 19:40:00,
2013-07-20 12:50:00,86.8,68.2,29.75,WNW,288,0.0,0.0,54,0.00,,,0.00,Wunderground v.1.15,2013-07-20 19:50:00,
2013-07-20 12:55:00,87.3,67.0,29.75,NE,47,0.0,0.0,51,0.00,,,0.00,Wunderground v.1.15,2013-07-20 19:55:00,
2013-07-20 13:00:00,88.4,66.2,29.75,South,169,0.0,0.0,48,0.00,,,0.00,Wunderground v.1.15,2013-07-20 20:00:00,
2013-07-20 13:05:00,88.6,68.2,29.75,ENE,72,0.0,0.0,51,0.00,,,0.00,Wunderground v.1.15,2013-07-20 20:05:00,
2013-07-20 13:15:00,89.4,68.9,29.74,SSE,148,0.0,0.0,51,0.00,,,0.00,Wunderground v.1.15,2013-07-20 20:15:00,
2013-07-20 13:20:00,89.5,67.2,29.74,ESE,110,0.0,0.0,48,0.00,,,0.00,Wunderground v.1.15,2013-07-20 20:20:00,
2013-07-20 13:25:00,89.7,67.4,29.74,ESE,122,0.0,0.0,48,0.00,,,0.00,Wunderground v.1.15,2013-07-20 20:25:00,
2013-07-20 13:30:00,90.3,68.5,29.73,ESE,123,0.0,0.0,49,0.00,,,0.00,Wunderground v.1.15,2013-07-20 20:30:00,
2013-07-20 13:40:00,91.1,66.8,29.73,SSE,155,0.0,0.0,45,0.00,,,0.00,Wunderground v.1.15,2013-07-20 20:40:00,
2013-07-20 13:45:00,91.5,67.8,29.73,South,170,0.0,0.0,46,0.00,,,0.00,Wunderground v.1.15,2013-07-20 20:45:00,
2013-07-20 13:55:00,92.4,68.0,29.72,South,169,0.0,0.0,45,0.00,,,0.00,Wunderground v.1.15,2013-07-20 20:55:00,
2013-07-20 14:05:00,92.8,67.0,29.72,SE,146,1.0,1.0,43,0.00,,,0.00,Wunderground v.1.15,2013-07-20 21:05:00,
2013-07-20 14:16:00,93.2,68.0,29.72,SSE,160,0.0,1.0,44,0.00,,,0.00,Wunderground v.1.15,2013-07-20 21:16:00,
2013-07-20 14:25:00,93.7,67.8,29.71,SSE,168,0.0,0.0,43,0.00,,,0.00,Wunderground v.1.15,2013-07-20 21:25:00,
2013-07-20 14:35:00,93.5,69.0,29.71,East,98,0.0,1.0,45,0.00,,,0.00,Wunderground v.1.15,2013-07-20 21:35:00,
2013-07-20 14:40:00,93.5,69.0,29.71,SE,126,0.0,0.0,45,0.00,,,0.00,Wunderground v.1.15,2013-07-20 21:40:00,
2013-07-20 14:45:00,94.6,67.3,29.71,SW,230,0.0,0.0,41,0.00,,,0.00,Wunderground v.1.15,2013-07-20 21:45:00,
2013-07-20 14:55:00,95.5,66.6,29.70,SW,214,1.0,1.0,39,0.00,,,0.00,Wunderground v.1.15,2013-07-20 21:55:00,
2013-07-20 15:00:00,95.8,66.9,29.70,SW,234,0.0,0.0,39,0.00,,,0.00,Wunderground v.1.15,2013-07-20 22:00:00,
2013-07-20 15:06:00,95.6,66.7,29.70,SW,227,1.0,1.0,39,0.00,,,0.00,Wunderground v.1.15,2013-07-20 22:06:00,
2013-07-20 15:15:00,95.4,68.0,29.70,South,186,1.0,1.0,41,0.00,,,0.00,Wunderground v.1.15,2013-07-20 22:15:00,
2013-07-20 15:25:00,94.7,65.9,29.69,South,188,1.0,1.0,39,0.00,,,0.00,Wunderground v.1.15,2013-07-20 22:25:00,
2013-07-20 15:30:00,94.9,66.1,29.69,South,186,1.0,1.0,39,0.00,,,0.00,Wunderground v.1.15,2013-07-20 22:30:00,
2013-07-20 15:35:00,94.9,66.1,29.69,South,180,1.0,3.0,39,0.00,,,0.00,Wunderground v.1.15,2013-07-20 22:35:00,
2013-07-20 15:40:00,95.0,65.4,29.69,South,183,1.0,1.0,38,0.00,,,0.00,Wunderground v.1.15,2013-07-20 22:40:00,
2013-07-20 15:50:00,94.9,65.3,29.68,South,177,1.0,1.0,38,0.00,,,0.00,Wunderground v.1.15,2013-07-20 22:50:00,
2013-07-20 16:00:00,95.3,67.9,29.68,WSW,250,1.0,1.0,41,0.00,,,0.00,Wunderground v.1.15,2013-07-20 23:00:00,
2013-07-20 16:05:00,94.9,64.6,29.68,South,190,2.0,3.0,37,0.00,,,0.00,Wunderground v.1.15,2013-07-20 23:05:00,
2013-07-20 16:15:00,94.9,64.6,29.67,South,170,1.0,2.0,37,0.00,,,0.00,Wunderground v.1.15,2013-07-20 23:15:00,
2013-07-20 16:25:00,94.7,65.1,29.66,SW,214,1.0,1.0,38,0.00,,,0.00,Wunderground v.1.15,2013-07-20 23:25:00,
2013-07-20 16:30:00,94.7,65.9,29.67,South,178,1.0,1.0,39,0.00,,,0.00,Wunderground v.1.15,2013-07-20 23:30:00,
2013-07-20 16:35:00,94.3,65.5,29.66,SSW,194,2.0,2.0,39,0.00,,,0.00,Wunderground v.1.15,2013-07-20 23:35:00,
2013-07-20 16:40:00,94.3,66.3,29.66,South,190,2.0,2.0,40,0.00,,,0.00,Wunderground v.1.15,2013-07-20 23:40:00,
2013-07-20 16:45:00,94.2,65.4,29.66,South,173,1.0,2.0,39,0.00,,,0.00,Wunderground v.1.15,2013-07-20 23:45:00,
2013-07-20 16:55:00,94.5,65.0,29.66,South,178,1.0,3.0,38,0.00,,,0.00,Wunderground v.1.15,2013-07-20 23:55:00,
2013-07-20 17:05:00,94.6,64.3,29.65,South,181,1.0,5.0,37,0.00,,,0.00,Wunderground v.1.15,2013-07-21 00:05:00,
2013-07-20 17:15:00,94.4,63.3,29.65,West,263,2.0,3.0,36,0.00,,,0.00,Wunderground v.1.15,2013-07-21 00:15:00,
2013-07-20 17:20:00,94.2,63.9,29.65,South,185,2.0,2.0,37,0.00,,,0.00,Wunderground v.1.15,2013-07-21 00:20:00,
2013-07-20 17:30:00,93.9,60.4,29.65,South,183,2.0,2.0,33,0.00,,,0.00,Wunderground v.1.15,2013-07-21 00:30:00,
2013-07-20 17:40:00,93.7,63.5,29.65,South,175,2.0,2.0,37,0.00,,,0.00,Wunderground v.1.15,2013-07-21 00:40:00,
2013-07-20 17:50:00,93.8,62.0,29.64,South,178,1.0,1.0,35,0.00,,,0.00,Wunderground v.1.15,2013-07-21 00:50:00,
2013-07-20 17:55:00,93.7,62.7,29.64,South,180,1.0,1.0,36,0.00,,,0.00,Wunderground v.1.15,2013-07-21 00:55:00,
2013-07-20 18:00:00,93.5,62.5,29.64,South,181,1.0,1.0,36,0.00,,,0.00,Wunderground v.1.15,2013-07-21 01:00:00,
2013-07-20 18:05:00,93.3,63.9,29.64,South,179,1.0,1.0,38,0.00,,,0.00,Wunderground v.1.15,2013-07-21 01:05:00,
2013-07-20 18:15:00,92.9,65.0,29.64,South,179,1.0,2.0,40,0.00,,,0.00,Wunderground v.1.15,2013-07-21 01:15:00,
2013-07-20 18:20:00,92.8,64.9,29.64,South,183,1.0,1.0,40,0.00,,,0.00,Wunderground v.1.15,2013-07-21 01:20:00,
2013-07-20 18:25:00,92.6,65.5,29.63,South,175,1.0,1.0,41,0.00,,,0.00,Wunderground v.1.15,2013-07-21 01:25:00,
2013-07-20 18:30:00,92.3,65.2,29.63,South,171,0.0,0.0,41,0.00,,,0.00,Wunderground v.1.15,2013-07-21 01:30:00,
2013-07-20 18:35:00,92.0,65.6,29.63,South,187,0.0,0.0,42,0.00,,,0.00,Wunderground v.1.15,2013-07-21 01:35:00,
2013-07-20 18:40:00,91.7,66.0,29.63,South,180,0.0,0.0,43,0.00,,,0.00,Wunderground v.1.15,2013-07-21 01:40:00,
2013-07-20 18:50:00,91.1,66.2,29.63,South,183,0.0,0.0,44,0.00,,,0.00,Wunderground v.1.15,2013-07-21 01:50:00,
2013-07-20 18:55:00,90.7,65.1,29.63,South,190,0.0,0.0,43,0.00,,,0.00,Wunderground v.1.15,2013-07-21 01:55:00,
2013-07-20 19:00:00,90.3,65.4,29.63,South,190,0.0,0.0,44,0.00,,,0.00,Wunderground v.1.15,2013-07-21 02:00:00,
2013-07-20 19:05:00,89.9,65.7,29.64,South,187,0.0,0.0,45,0.00,,,0.00,Wunderground v.1.15,2013-07-21 02:05:00,
2013-07-20 19:15:00,88.8,66.0,29.64,South,184,0.0,1.0,47,0.00,,,0.00,Wunderground v.1.15,2013-07-21 02:15:00,
2013-07-20 19:20:00,88.2,65.4,29.63,SSW,194,0.0,0.0,47,0.00,,,0.00,Wunderground v.1.15,2013-07-21 02:20:00,
2013-07-20 19:30:00,86.9,63.0,29.64,South,173,1.0,1.0,45,0.00,,,0.00,Wunderground v.1.15,2013-07-21 02:30:00,
2013-07-20 19:35:00,86.1,62.9,29.64,South,185,1.0,1.0,46,0.00,,,0.00,Wunderground v.1.15,2013-07-21 02:35:00,
2013-07-20 19:40:00,85.4,62.9,29.64,South,184,0.0,2.0,47,0.00,,,0.00,Wunderground v.1.15,2013-07-21 02:40:00,
2013-07-20 19:45:00,84.7,62.8,29.64,South,184,0.0,2.0,48,0.00,,,0.00,Wunderground v.1.15,2013-07-21 02:45:00,
2013-07-20 19:55:00,83.3,62.7,29.64,South,180,0.0,0.0,50,0.00,,,0.00,Wunderground v.1.15,2013-07-21 02:55:00,
2013-07-20 20:00:00,82.5,62.0,29.64,South,189,0.0,0.0,50,0.00,,,0.00,Wunderground v.1.15,2013-07-21 03:00:00,
2013-07-20 20:05:00,81.6,61.2,29.65,South,184,0.0,4.0,50,0.00,,,0.00,Wunderground v.1.15,2013-07-21 03:05:00,
2013-07-20 20:15:00,79.8,60.6,29.65,South,184,1.0,1.0,52,0.00,,,0.00,Wunderground v.1.15,2013-07-21 03:15:00,
2013-07-20 20:25:00,78.3,60.3,29.65,South,182,0.0,0.0,54,0.00,,,0.00,Wunderground v.1.15,2013-07-21 03:25:00,
2013-07-20 20:30:00,77.5,59.5,29.65,South,182,0.0,0.0,54,0.00,,,0.00,Wunderground v.1.15,2013-07-21 03:30:00,
2013-07-20 20:40:00,76.2,58.9,29.65,South,185,0.0,0.0,55,0.00,,,0.00,Wunderground v.1.15,2013-07-21 03:40:00,
2013-07-20 20:45:00,75.5,58.7,29.65,South,187,1.0,1.0,56,0.00,,,0.00,Wunderground v.1.15,2013-07-21 03:45:00,
2013-07-20 20:56:00,74.2,58.5,29.65,South,176,1.0,5.0,58,0.00,,,0.00,Wunderground v.1.15,2013-07-21 03:56:00,
2013-07-20 21:06:00,73.0,58.3,29.65,South,187,1.0,1.0,60,0.00,,,0.00,Wunderground v.1.15,2013-07-21 04:06:00,
2013-07-20 21:15:00,72.1,57.9,29.66,SSW,201,0.0,1.0,61,0.00,,,0.00,Wunderground v.1.15,2013-07-21 04:15:00,
2013-07-20 21:20:00,71.7,58.0,29.66,SW,225,1.0,1.0,62,0.00,,,0.00,Wunderground v.1.15,2013-07-21 04:20:00,
2013-07-20 21:25:00,71.3,57.6,29.66,South,187,1.0,2.0,62,0.00,,,0.00,Wunderground v.1.15,2013-07-21 04:25:00,
2013-07-20 21:30:00,71.0,57.3,29.66,South,180,1.0,2.0,62,0.00,,,0.00,Wunderground v.1.15,2013-07-21 04:30:00,
2013-07-20 21:35:00,70.8,57.1,29.66,South,182,1.0,3.0,62,0.00,,,0.00,Wunderground v.1.15,2013-07-21 04:35:00,
2013-07-20 21:40:00,70.6,57.4,29.66,South,184,1.0,1.0,63,0.00,,,0.00,Wunderground v.1.15,2013-07-21 04:40:00,
2013-07-20 21:45:00,70.4,57.2,29.66,SSW,200,1.0,1.0,63,0.00,,,0.00,Wunderground v.1.15,2013-07-21 04:45:00,
2013-07-20 21:55:00,70.1,56.9,29.67,South,182,1.0,1.0,63,0.00,,,0.00,Wunderground v.1.15,2013-07-21 04:55:00,
2013-07-20 22:00:00,69.9,57.2,29.66,South,188,0.0,0.0,64,0.00,,,0.00,Wunderground v.1.15,2013-07-21 05:00:00,
2013-07-20 22:05:00,69.6,56.9,29.67,South,183,0.0,0.0,64,0.00,,,0.00,Wunderground v.1.15,2013-07-21 05:05:00,
2013-07-20 22:15:00,69.3,56.6,29.67,SSW,200,1.0,1.0,64,0.00,,,0.00,Wunderground v.1.15,2013-07-21 05:15:00,
2013-07-20 22:20:00,69.2,56.5,29.67,SSW,193,1.0,5.0,64,0.00,,,0.00,Wunderground v.1.15,2013-07-21 05:20:00,
2013-07-20 22:25:00,69.1,56.4,29.67,South,180,1.0,5.0,64,0.00,,,0.00,Wunderground v.1.15,2013-07-21 05:25:00,
2013-07-20 22:30:00,69.0,56.3,29.67,South,186,1.0,1.0,64,0.00,,,0.00,Wunderground v.1.15,2013-07-21 05:30:00,
2013-07-20 22:35:00,68.8,56.1,29.67,South,180,0.0,1.0,64,0.00,,,0.00,Wunderground v.1.15,2013-07-21 05:35:00,